�N����,����,�~����,�C��,���x,�C��,����,���ϕ���,�ő�u�ԕ���,�ő厞����,���˗�,�I�_���x,�n�����x,�ő啗���N��,DTYPE
"16/05/19","00:10",0.0,15.7,80.7,1014.0,323.2,1.6,2.9,352.7,0.00,12.4,18.8,"00:06:16",1
"16/05/19","00:20",0.0,15.8,80.0,1013.8,329.6,1.8,4.0,357.0,0.00,12.4,18.8,"00:12:08",1
"16/05/19","00:30",0.0,15.6,80.4,1014.2,325.1,1.5,2.6,338.5,0.00,12.3,18.9,"00:26:32",1
"16/05/19","00:40",0.0,15.3,81.2,1014.2,311.2,1.7,2.5,302.5,0.00,12.1,18.5,"00:38:16",1
"16/05/19","00:50",0.0,15.1,81.4,1014.0,299.3,1.1,2.0,320.4,0.00,12.0,18.6,"00:40:32",1
"16/05/19","01:00",0.0,15.0,82.3,1014.0,313.5,1.3,2.2,317.8,0.00,12.1,18.4,"00:57:20",1
"16/05/19","01:10",0.0,15.0,82.8,1013.8,317.1,1.2,2.2,338.3,0.00,12.1,18.4,"01:07:20",1
"16/05/19","01:20",0.0,15.0,83.0,1013.8,323.2,1.7,2.4,315.1,0.00,12.2,18.5,"01:17:44",1
"16/05/19","01:30",0.0,14.8,83.4,1014.0,301.2,1.2,2.1,331.1,0.00,12.1,18.2,"01:20:48",1
"16/05/19","01:40",0.0,14.4,84.4,1014.0,294.4,1.1,1.9,315.2,0.00,11.8,18.3,"01:39:12",1
"16/05/19","01:50",0.0,14.3,85.1,1013.8,302.0,1.2,1.9,311.9,0.00,11.9,18.4,"01:41:20",1
"16/05/19","02:00",0.0,14.1,85.9,1013.8,296.5,1.2,1.6,306.8,0.00,11.8,18.2,"01:52:48",1
"16/05/19","02:10",0.0,14.1,86.3,1014.0,296.5,1.3,1.9,318.8,0.00,11.9,18.3,"02:03:12",1
"16/05/19","02:20",0.0,13.9,86.6,1014.0,297.0,1.2,1.6,298.8,0.00,11.7,18.0,"02:13:28",1
"16/05/19","02:30",0.0,13.7,87.2,1014.0,301.1,1.2,1.9,317.6,0.00,11.7,18.0,"02:28:08",1
"16/05/19","02:40",0.0,13.6,87.6,1014.0,303.1,1.2,1.6,301.8,0.00,11.6,18.0,"02:30:40",1
"16/05/19","02:50",0.0,13.4,88.2,1014.2,308.2,1.2,1.8,315.9,0.00,11.5,17.9,"02:42:32",1
"16/05/19","03:00",0.0,13.3,88.6,1014.2,301.0,1.1,1.6,305.5,0.00,11.5,18.0,"02:55:44",1
"16/05/19","03:10",0.0,13.4,89.1,1014.5,315.4,1.6,2.1,324.2,0.00,11.7,17.9,"03:09:28",1
"16/05/19","03:20",0.0,13.4,88.7,1014.5,321.0,1.6,2.0,314.0,0.00,11.6,18.0,"03:11:44",1
"16/05/19","03:30",0.0,13.1,89.4,1014.2,305.4,1.0,1.6,327.9,0.00,11.4,17.7,"03:21:44",1
"16/05/19","03:40",0.0,13.0,90.1,1014.5,304.8,1.1,1.7,317.3,0.00,11.5,17.7,"03:35:44",1
"16/05/19","03:50",0.0,12.9,90.4,1014.5,304.0,1.1,1.6,324.9,0.00,11.4,17.7,"03:41:04",1
"16/05/19","04:00",0.0,12.6,91.3,1014.5,313.8,1.3,1.7,332.1,0.00,11.3,17.5,"03:58:00",1
"16/05/19","04:10",0.0,12.4,92.1,1014.7,305.7,1.1,1.4,322.0,0.00,11.2,17.7,"04:00:08",1
"16/05/19","04:20",0.0,12.3,92.7,1014.7,291.1,0.8,1.3,309.6,0.00,11.2,17.3,"04:10:32",1
"16/05/19","04:30",0.0,12.4,93.0,1014.7,284.5,1.0,1.1,275.2,0.00,11.3,17.4,"04:26:04",1
"16/05/19","04:40",0.0,12.5,93.0,1014.7,306.0,1.2,1.9,319.7,0.00,11.4,17.3,"04:37:36",1
"16/05/19","04:50",0.0,12.3,93.0,1014.7,303.7,1.1,1.8,319.0,0.00,11.2,17.4,"04:40:08",1
"16/05/19","05:00",0.0,12.3,93.4,1014.7,297.3,1.1,1.6,323.8,0.00,11.3,17.5,"04:56:50",1
"16/05/19","05:10",0.0,12.3,93.5,1014.7,296.3,1.0,1.3,303.3,0.00,11.3,17.4,"05:03:46",1
"16/05/19","05:20",0.0,12.3,93.7,1014.9,297.3,0.8,1.2,309.4,0.00,11.4,17.4,"05:10:32",1
"16/05/19","05:30",0.0,12.5,93.9,1014.9,309.7,1.2,1.7,318.7,0.00,11.6,17.2,"05:25:20",1
"16/05/19","05:40",0.0,12.8,93.9,1014.9,331.7,1.5,1.8,338.4,0.00,11.9,17.4,"05:31:04",1
"16/05/19","05:50",0.0,13.2,93.6,1014.9,326.0,1.3,1.8,324.3,0.01,12.2,17.3,"05:45:20",1
"16/05/19","06:00",0.0,13.9,93.4,1015.2,324.3,1.1,1.6,330.4,0.02,12.9,17.2,"05:51:04",1
"16/05/19","06:10",0.0,14.8,91.1,1015.4,316.4,0.5,0.9,299.2,0.02,13.4,17.3,"06:02:48",1
"16/05/19","06:20",0.0,16.0,87.4,1015.4,358.6,0.3,0.8,307.9,0.04,13.9,17.2,"06:13:36",1
"16/05/19","06:30",0.0,16.4,82.6,1015.2,330.8,1.0,1.9,339.2,0.05,13.5,17.1,"06:27:28",1
"16/05/19","06:40",0.0,16.8,82.2,1015.4,336.0,0.8,1.8,346.0,0.09,13.8,17.4,"06:31:12",1
"16/05/19","06:50",0.0,17.5,78.6,1015.4,274.4,0.2,0.8,259.9,0.12,13.8,17.1,"06:40:08",1
"16/05/19","07:00",0.0,17.7,76.8,1015.4,256.6,0.6,1.1,231.9,0.15,13.6,17.4,"06:59:52",1
"16/05/19","07:10",0.0,18.7,80.2,1015.4,286.9,0.3,0.9,297.7,0.16,15.3,17.3,"07:04:16",1
"16/05/19","07:20",0.0,19.1,74.0,1015.2,233.2,0.2,0.8,205.5,0.20,14.4,17.4,"07:14:24",1
"16/05/19","07:30",0.0,19.7,70.2,1015.4,58.5,0.5,0.9,344.2,0.23,14.2,17.5,"07:21:52",1
"16/05/19","07:40",0.0,20.3,68.8,1014.7,2.2,0.5,1.4,349.2,0.26,14.4,17.5,"07:30:02",1
"16/05/19","07:50",0.0,20.8,67.5,1014.7,335.8,0.5,2.1,343.6,0.29,14.6,17.6,"07:40:16",1
"16/05/19","08:00",0.0,21.4,64.7,1014.7,193.4,0.6,1.2,180.0,0.33,14.5,17.8,"07:51:04",1
"16/05/19","08:10",0.0,21.3,65.1,1014.2,237.1,0.5,1.6,190.0,0.26,14.5,17.9,"08:01:12",1
"16/05/19","08:20",0.0,21.5,62.5,1014.2,273.5,0.6,2.6,232.9,0.29,14.1,17.7,"08:10:40",1
"16/05/19","08:30",0.0,21.6,61.2,1014.0,237.0,0.5,1.4,229.2,0.31,13.9,18.0,"08:24:00",1
"16/05/19","08:40",0.0,22.3,58.2,1014.2,128.5,0.5,1.2,108.9,0.34,13.7,18.2,"08:39:36",1
"16/05/19","08:50",0.0,22.5,58.2,1014.0,154.5,0.8,2.0,159.9,0.36,13.9,18.1,"08:48:56",1
"16/05/19","09:00",0.0,22.6,60.3,1014.2,189.9,0.8,1.6,228.4,0.35,14.6,18.2,"08:56:48",1
"16/05/19","09:10",0.0,23.4,58.1,1013.5,117.2,0.8,2.1,148.5,0.43,14.7,18.4,"09:08:08",1
"16/05/19","09:20",0.0,24.2,58.7,1013.8,160.0,1.0,2.2,130.8,0.44,15.6,18.6,"09:13:12",1
"16/05/19","09:30",0.0,24.0,53.0,1013.0,9.8,0.8,2.1,344.6,0.43,13.9,18.8,"09:28:32",1
"16/05/19","09:40",0.0,24.6,51.2,1013.3,228.5,0.5,1.8,224.1,0.52,13.9,18.9,"09:38:00",1
"16/05/19","09:50",0.0,24.4,46.0,1013.3,191.8,1.0,2.9,182.0,0.42,12.1,19.1,"09:44:56",1
"16/05/19","10:00",0.0,24.4,46.6,1013.0,134.6,1.2,2.6,187.1,0.41,12.3,19.0,"09:57:36",1
"16/05/19","10:10",0.0,24.9,49.9,1012.8,176.9,1.5,3.1,167.7,0.48,13.8,19.2,"10:05:28",1
"16/05/19","10:20",0.0,25.3,48.4,1013.0,184.4,1.8,4.0,190.9,0.58,13.7,19.3,"10:14:32",1
"16/05/19","10:30",0.0,25.0,47.3,1013.0,154.6,1.2,3.1,127.4,0.55,13.1,19.6,"10:24:40",1
"16/05/19","10:40",0.0,25.9,49.0,1012.6,134.8,1.1,3.4,150.3,0.61,14.4,20.0,"10:36:48",1
"16/05/19","10:50",0.0,25.8,44.8,1012.6,159.2,2.0,3.5,204.7,0.60,12.9,20.1,"10:44:40",1
"16/05/19","11:00",0.0,25.8,48.9,1012.8,157.9,1.2,2.9,180.8,0.59,14.3,20.3,"10:54:16",1
"16/05/19","11:10",0.0,26.6,44.5,1013.0,22.3,1.0,2.2,347.5,0.60,13.6,20.5,"11:07:28",1
"16/05/19","11:20",0.0,27.0,45.0,1012.8,59.6,0.8,2.0,352.3,0.55,14.1,20.7,"11:16:00",1
"16/05/19","11:30",0.0,27.0,49.3,1012.8,176.5,1.6,2.8,217.4,0.56,15.5,20.9,"11:23:04",1
"16/05/19","11:40",0.0,27.2,44.6,1012.8,186.4,1.3,3.3,226.2,0.64,14.1,20.9,"11:34:00",1
"16/05/19","11:50",0.0,27.4,47.3,1012.8,163.7,1.1,2.9,165.4,0.61,15.2,21.1,"11:48:00",1
"16/05/19","12:00",0.0,27.4,43.4,1012.8,161.0,1.2,2.4,112.7,0.61,13.9,21.3,"11:53:20",1
"16/05/19","12:10",0.0,27.2,43.8,1012.8,175.5,1.5,3.3,206.1,0.53,13.9,21.6,"12:07:12",1
"16/05/19","12:20",0.0,27.6,41.9,1012.6,158.3,1.7,4.7,177.5,0.58,13.5,21.7,"12:13:20",1
"16/05/19","12:30",0.0,28.2,41.2,1012.3,196.2,1.6,3.5,186.7,0.62,13.8,21.7,"12:29:04",1
"16/05/19","12:40",0.0,27.7,39.2,1012.1,201.9,1.7,4.0,177.7,0.56,12.6,21.9,"12:37:12",1
"16/05/19","12:50",0.0,27.5,37.6,1011.6,203.1,2.0,4.5,232.4,0.48,11.8,21.8,"12:40:40",1
"16/05/19","13:00",0.0,27.8,36.4,1011.9,188.6,2.1,4.7,195.8,0.53,11.6,22.1,"12:57:52",1
"16/05/19","13:10",0.0,27.9,36.1,1011.9,206.0,1.5,4.2,225.5,0.52,11.5,22.2,"13:00:08",1
"16/05/19","13:20",0.0,27.7,39.7,1011.4,181.0,2.0,4.3,194.3,0.35,12.8,22.1,"13:12:16",1
"16/05/19","13:30",0.0,28.4,39.1,1011.2,168.6,1.0,3.2,202.0,0.47,13.2,22.3,"13:22:48",1
"16/05/19","13:40",0.0,28.0,37.6,1011.2,197.8,1.0,2.7,126.4,0.35,12.2,22.2,"13:30:32",1
"16/05/19","13:50",0.0,28.3,37.2,1011.4,215.1,1.3,3.2,226.2,0.47,12.4,22.3,"13:48:32",1
"16/05/19","14:00",0.0,28.0,42.2,1011.6,217.7,0.8,2.5,229.4,0.33,14.0,22.3,"13:53:36",1
"16/05/19","14:10",0.0,28.4,35.4,1010.9,163.5,1.3,3.2,164.1,0.40,11.7,22.4,"14:07:04",1
"16/05/19","14:20",0.0,28.1,36.4,1010.9,160.0,1.1,2.4,160.4,0.36,11.8,22.6,"14:16:00",1
"16/05/19","14:30",0.0,28.3,36.8,1010.9,195.9,0.8,2.9,223.0,0.32,12.2,22.6,"14:28:32",1
"16/05/19","14:40",0.0,28.3,36.6,1010.4,191.7,1.5,3.7,228.0,0.35,12.1,22.6,"14:32:24",1
"16/05/19","14:50",0.0,27.9,37.9,1010.2,165.8,1.5,2.7,167.4,0.28,12.3,22.7,"14:46:32",1
"16/05/19","15:00",0.0,27.7,37.8,1010.0,193.4,2.2,4.0,203.8,0.23,12.1,22.6,"14:53:20",1
"16/05/19","15:10",0.0,28.7,38.7,1010.0,178.8,1.3,2.7,227.5,0.42,13.3,22.7,"15:00:16",1
"16/05/19","15:20",0.0,28.8,37.4,1010.2,248.9,1.0,2.9,200.6,0.38,12.9,22.7,"15:12:08",1
"16/05/19","15:30",0.0,28.5,38.4,1010.0,25.0,1.0,3.1,206.0,0.31,13.0,22.7,"15:22:16",1
"16/05/19","15:40",0.0,28.1,38.6,1009.5,93.1,1.0,2.8,41.5,0.21,12.7,22.5,"15:33:04",1
"16/05/19","15:50",0.0,28.1,40.2,1009.5,101.8,1.5,3.2,108.7,0.24,13.4,22.7,"15:48:40",1
"16/05/19","16:00",0.0,28.4,37.2,1009.3,81.8,1.1,2.5,109.9,0.27,12.4,22.6,"15:52:16",1
"16/05/19","16:10",0.0,28.3,39.0,1009.3,87.9,0.8,2.8,91.1,0.26,13.1,22.6,"16:00:24",1
"16/05/19","16:20",0.0,28.6,39.3,1009.3,52.0,1.3,3.6,42.2,0.26,13.5,22.5,"16:18:00",1
"16/05/19","16:30",0.0,28.7,37.0,1009.5,48.7,0.8,2.9,57.7,0.25,12.6,22.5,"16:20:40",1
"16/05/19","16:40",0.0,28.5,37.7,1009.3,34.8,0.8,1.8,14.0,0.21,12.7,22.6,"16:39:04",1
"16/05/19","16:50",0.0,27.9,39.8,1009.3,47.2,1.3,3.6,162.7,0.10,13.0,22.4,"16:47:28",1
"16/05/19","17:00",0.0,26.9,39.8,1008.6,152.7,1.3,2.4,167.4,0.05,12.1,22.5,"16:52:48",1
"16/05/19","17:10",0.0,26.8,40.6,1008.8,95.6,0.7,1.8,20.6,0.04,12.3,22.3,"17:08:08",1
"16/05/19","17:20",0.0,26.8,41.8,1009.0,29.9,0.6,1.6,57.3,0.05,12.8,22.0,"17:15:28",1
"16/05/19","17:30",0.0,26.9,40.2,1009.0,18.3,0.8,1.9,53.9,0.07,12.3,22.1,"17:24:00",1
"16/05/19","17:40",0.0,27.0,39.6,1009.3,31.5,0.8,2.1,39.9,0.07,12.1,22.1,"17:34:32",1
"16/05/19","17:50",0.0,26.8,39.7,1009.5,20.1,1.0,1.9,45.6,0.03,12.0,22.1,"17:42:40",1
"16/05/19","18:00",0.0,26.5,40.4,1009.3,15.7,1.2,2.4,40.0,0.01,12.0,22.1,"17:57:28",1
"16/05/19","18:10",0.0,26.1,45.3,1009.5,5.3,1.0,1.9,349.0,0.01,13.4,21.9,"18:09:04",1
"16/05/19","18:20",0.0,25.1,49.6,1009.7,319.0,0.8,1.8,347.0,0.00,13.9,22.0,"18:11:52",1
"16/05/19","18:30",0.0,24.2,52.0,1010.0,291.6,0.6,1.3,286.9,0.00,13.8,21.8,"18:29:28",1
"16/05/19","18:40",0.0,23.5,54.2,1010.4,278.5,0.8,1.1,295.0,0.00,13.8,21.7,"18:35:28",1
"16/05/19","18:50",0.0,23.2,55.4,1010.4,273.3,0.8,1.2,237.6,0.00,13.8,21.7,"18:47:52",1
"16/05/19","19:00",0.0,23.1,57.0,1010.4,324.3,1.7,3.1,347.2,0.00,14.2,21.5,"18:58:24",1
"16/05/19","19:10",0.0,22.5,62.2,1010.4,309.1,1.1,2.6,326.7,0.00,15.0,21.5,"19:02:56",1
"16/05/19","19:20",0.0,21.8,61.7,1010.9,312.1,1.3,2.5,319.8,0.00,14.2,21.4,"19:15:52",1
"16/05/19","19:30",0.0,21.5,62.1,1011.2,304.2,1.0,1.7,339.3,0.00,14.0,21.2,"19:22:32",1
"16/05/19","19:40",0.0,21.2,65.4,1011.2,326.6,1.3,1.9,339.7,0.00,14.5,21.3,"19:33:52",1
"16/05/19","19:50",0.0,20.9,66.7,1011.2,333.3,1.3,2.1,340.4,0.00,14.5,21.0,"19:46:08",1
"16/05/19","20:00",0.0,20.8,65.9,1011.9,326.4,1.5,2.6,339.8,0.00,14.2,21.2,"19:56:00",1
"16/05/19","20:10",0.0,20.6,67.1,1011.9,318.6,1.2,1.6,305.5,0.00,14.3,21.2,"20:03:44",1
"16/05/19","20:20",0.0,20.2,68.2,1012.1,313.3,1.2,1.7,316.1,0.00,14.2,20.8,"20:12:24",1
"16/05/19","20:30",0.0,19.8,69.0,1012.1,309.9,1.2,1.6,322.5,0.00,14.0,20.7,"20:26:00",1
"16/05/19","20:40",0.0,19.5,68.9,1012.1,299.3,1.1,1.9,329.4,0.00,13.7,20.8,"20:32:08",1
"16/05/19","20:50",0.0,19.1,70.6,1012.6,317.3,1.5,1.9,320.4,0.00,13.7,20.6,"20:49:20",1
"16/05/19","21:00",0.0,18.9,70.0,1012.6,305.2,1.2,1.7,320.8,0.00,13.4,20.7,"20:55:52",1
"16/05/19","21:10",0.0,19.0,69.8,1013.0,327.8,1.5,2.5,337.7,0.00,13.4,20.4,"21:05:20",1
"16/05/19","21:20",0.0,19.0,69.8,1013.0,320.2,0.8,2.0,330.6,0.00,13.4,20.4,"21:10:08",1
"16/05/19","21:30",0.0,18.6,71.3,1013.0,300.1,0.7,1.2,314.6,0.00,13.3,20.3,"21:27:04",1
"16/05/19","21:40",0.0,18.2,72.8,1013.0,302.7,1.1,1.8,305.9,0.00,13.3,20.1,"21:37:28",1
"16/05/19","21:50",0.0,18.1,73.1,1013.0,298.7,1.3,1.8,305.0,0.00,13.2,20.2,"21:41:44",1
"16/05/19","22:00",0.0,18.1,73.5,1013.3,300.1,1.2,1.4,304.4,0.00,13.3,20.1,"21:50:16",1
"16/05/19","22:10",0.0,17.9,74.2,1012.8,310.0,1.3,1.8,306.3,0.00,13.3,20.0,"22:04:48",1
"16/05/19","22:20",0.0,17.8,75.1,1013.3,310.0,1.2,1.8,318.0,0.00,13.4,19.9,"22:12:00",1
"16/05/19","22:30",0.0,17.5,76.2,1013.3,293.4,0.8,1.3,301.3,0.00,13.3,19.8,"22:23:36",1
"16/05/19","22:40",0.0,17.3,76.6,1013.3,280.5,0.7,1.2,319.8,0.00,13.2,19.8,"22:37:36",1
"16/05/19","22:50",0.0,17.2,77.1,1013.3,297.1,1.0,1.3,320.1,0.00,13.2,19.7,"22:45:28",1
"16/05/19","23:00",0.0,17.1,78.0,1013.3,295.0,1.1,1.6,306.5,0.00,13.3,19.6,"22:58:08",1
"16/05/19","23:10",0.0,17.0,78.5,1013.3,300.5,1.0,1.4,329.6,0.00,13.3,19.5,"23:00:16",1
"16/05/19","23:20",0.0,16.8,78.9,1013.5,295.5,0.8,1.2,286.7,0.00,13.2,19.7,"23:13:52",1
"16/05/19","23:30",0.0,16.8,79.0,1013.8,296.8,1.0,1.3,301.1,0.00,13.2,19.6,"23:29:20",1
"16/05/19","23:40",0.0,16.9,79.0,1013.5,301.6,1.1,1.6,311.1,0.00,13.3,19.6,"23:35:52",1
"16/05/19","23:50",0.0,16.8,78.8,1013.5,297.4,0.8,1.0,286.7,0.00,13.1,19.5,"23:42:56",1
"16/05/19","24:00",0.0,16.8,78.7,1013.0,301.5,1.0,1.4,294.5,0.00,13.1,19.3,"23:50:02",1
